EW7070 Weather Reports


Display with metric or nautical units.
time (UTC)temp
F
wind
direction
speed
MPH
gust
MPH
rain 1hr
in
rain 24hr
in
rain mn
in
humidity
%
barometer
mb
20260502192827 71 259 3.0 5.0 0.00 2.42 0.59 79 1018.7
20260502192604 71 275 2.0 5.0 0.00 2.42 0.59 80 1018.4
20260502192326 71 253 2.0 5.0 0.00 2.42 0.59 79 1018.5
20260502191257 71 255 2.0 5.0 0.00 2.42 0.59 80 1018.3
20260502190745 71 255 4.0 8.0 0.00 2.42 0.59 79 1018.2
20260502190218 71 249 3.0 9.0 0.00 2.42 0.59 80 1018.2
20260502185947 71 254 2.0 5.0 0.00 2.42 0.59 80 1018.2
20260502185148 71 262 3.0 7.0 0.00 2.42 0.59 79 1018.1
20260502184621 71 249 3.0 9.0 0.00 2.42 0.59 78 1018.1
20260502184354 72 268 3.0 9.0 0.00 2.42 0.59 78 1018.1
20260502183612 72 187 3.0 7.0 0.00 2.42 0.59 78 1017.9
20260502183110 72 251 4.0 10.0 0.00 2.42 0.59 78 1018.0
20260502182545 72 258 4.0 10.0 0.00 2.42 0.59 78 1017.9
20260502182018 72 267 3.0 9.0 0.00 2.42 0.59 78 1017.9
20260502181742 72 205 3.0 8.0 0.00 2.42 0.59 78 1017.9
20260502181009 73 270 3.0 8.0 0.00 2.42 0.59 78 1017.9
20260502180444 72 289 2.0 7.0 0.00 2.42 0.59 80 1017.9
20260502170311 72 263 2.0 11.0 0.00 2.42 0.59 81 1017.9
20260502164218 72 276 5.0 10.0 0.00 2.42 0.59 81 1017.9
20260502163716 72 207 5.0 10.0 0.00 2.42 0.59 81 1018.0
20260502163214 72 266 5.0 12.0 0.00 2.42 0.59 81 1018.0
20260502162648 72 268 4.0 12.0 0.00 2.42 0.59 81 1018.0
20260502162118 72 249 4.0 13.0 0.00 2.42 0.59 82 1017.8
20260502161550 72 253 5.0 13.0 0.00 2.42 0.59 82 1017.6
20260502161048 72 257 4.0 9.0 0.00 2.42 0.59 82 1017.7
20260502160813 72 251 4.0 11.0 0.00 2.42 0.59 83 1017.6
20260502151945 74 272 4.0 10.0 0.00 2.42 0.59 83 1017.0
20260502151446 74 247 3.0 8.0 0.00 2.42 0.59 84 1016.8
20260502150920 74 257 3.0 8.0 0.00 2.42 0.59 83 1016.9
20260502150354 74 266 3.0 7.0 0.00 2.42 0.59 83 1016.9
20260502130733 69 310 1.0 3.0 0.00 2.42 0.59 96 1016.9
20260502130231 69 293 2.0 4.0 0.00 2.42 0.59 96 1016.5
20260502123330 69 212 1.0 3.0 0.00 2.42 0.59 96 1016.5
20260502122806 69 322 1.0 3.0 0.00 2.42 0.59 96 1016.4
20260502122529 69 305 1.0 6.0 0.00 2.42 0.59 96 1016.4
20260502121752 69 223 2.0 7.0 0.00 2.42 0.59 97 1016.1
20260502121249 69 258 2.0 6.0 0.00 2.42 0.59 97 1015.8
20260502120953 69 272 2.0 7.0 0.00 2.42 0.59 97 1015.7
20260502120213 69 312 2.0 7.0 0.00 2.42 0.59 97 1015.6
20260502115713 68 280 2.0 6.0 0.00 2.42 0.59 97 1015.6
20260502115145 68 280 3.0 7.0 0.00 2.42 0.59 97 1015.4
20260502114629 68 287 3.0 7.0 0.00 2.42 0.59 96 1015.1
20260502114116 68 294 3.0 7.0 0.00 2.42 0.59 96 1015.2
20260502113550 68 293 3.0 7.0 0.00 2.42 0.59 96 1015.4
20260502113037 68 272 2.0 8.0 0.00 2.42 0.59 96 1015.1
20260502112525 68 280 2.0 8.0 0.00 2.42 0.59 96 1014.9
20260502111958 68 289 3.0 8.0 0.00 2.42 0.59 96 1014.6
20260502111714 68 266 3.0 8.0 0.00 2.42 0.59 96 1014.6
20260502110932 68 271 3.0 6.0 0.00 2.42 0.59 96 1014.3
20260502110430 68 276 3.0 7.0 0.00 2.42 0.59 96 1014.1
20260502110157 68 274 2.0 7.0 0.00 2.42 0.59 96 1014.0
20260502105423 68 308 2.0 6.0 0.00 2.42 0.59 96 1013.7
20260502104923 68 287 1.0 5.0 0.00 2.42 0.59 96 1013.5
20260502104420 68 303 1.0 3.0 0.00 2.42 0.59 95 1013.3
20260502103907 68 303 1.0 3.0 0.00 2.42 0.59 95 1013.2
20260502103357 68 318 2.0 4.0 0.00 2.42 0.59 95 1013.1
20260502102855 68 318 3.0 6.0 0.00 2.42 0.59 95 1013.1
20260502102350 68 289 3.0 6.0 0.00 2.42 0.59 95 1013.0
20260502102120 68 326 2.0 4.0 0.00 2.42 0.59 95 1012.9
20260502101347 68 322 2.0 4.0 0.00 2.42 0.59 94 1012.5
20260502100820 68 290 3.0 6.0 0.00 2.42 0.59 94 1012.5
20260502100320 68 288 3.0 6.0 0.00 2.42 0.59 94 1012.3
20260502091416 69 290 5.0 12.0 0.00 2.42 0.59 93 1011.3
20260502090611 69 282 5.0 12.0 0.00 2.42 0.59 93 1011.4
20260502071208 67 24 1.0 6.0 0.01 2.42 0.59 98 1009.8
20260502070705 67 285 2.0 6.0 0.01 2.42 0.59 98 1009.9
20260502070143 67 289 3.0 7.0 0.01 2.42 0.59 98 1010.1
20260502065644 67 275 2.0 7.0 0.01 2.42 0.59 98 1010.2
20260502065146 67 304 3.0 5.0 0.01 2.42 0.59 98 1010.1
20260502065139 67 263 2.0 6.0 0.01 2.42 0.59 98 1010.2
20260502064356 67 307 5.0 9.0 0.02 2.42 0.59 98 1010.1
20260502063559 67 291 5.0 9.0 0.04 2.42 0.59 98 1010.2
20260502063100 67 284 4.0 9.0 0.04 2.42 0.59 98 1010.0
20260502062558 67 270 5.0 9.0 0.05 2.42 0.59 98 1010.2
20260502062059 67 262 4.0 9.0 0.07 2.42 0.59 98 1010.1
20260502061814 68 275 3.0 8.0 0.09 2.42 0.59 98 1010.1
20260502061044 68 187 5.0 11.0 0.09 2.41 0.58 98 1009.9
20260502060543 68 266 4.0 11.0 0.11 2.41 0.58 98 1010.2
20260502060041 68 247 3.0 7.0 0.14 2.41 0.58 98 1009.3
20260502055513 68 106 5.0 13.0 0.17 2.41 0.58 98 1008.0
20260502055011 68 187 5.0 13.0 0.19 2.41 0.58 98 1009.0
20260502054509 67 335 4.0 11.0 0.21 2.40 0.57 99 1008.3
20260502054005 67 101 3.0 10.0 0.22 2.39 0.56 98 1009.7
20260502053501 67 334 2.0 6.0 0.23 2.38 0.55 98 1010.1
20260502052959 67 287 2.0 4.0 0.26 2.38 0.55 98 1010.4
20260502052459 67 33 3.0 5.0 0.26 2.37 0.54 98 1010.0
20260502051957 67 38 3.0 8.0 0.26 2.35 0.52 98 1010.9
20260502051455 67 256 2.0 7.0 0.26 2.33 0.50 98 1011.6
20260502050950 67 210 2.0 6.0 0.27 2.31 0.48 98 1011.0
20260502050427 67 177 3.0 8.0 0.26 2.29 0.46 98 1011.5
20260502045917 67 270 5.0 10.0 0.25 2.27 0.44 98 1011.7
20260502045417 67 285 4.0 10.0 0.24 2.24 0.41 98 1011.7
20260502044913 67 305 3.0 7.0 0.23 2.21 0.39 98 1011.7
20260502044409 67 302 4.0 7.0 0.23 2.19 0.36 98 1011.8
20260502043909 67 277 3.0 7.0 0.22 2.16 0.34 98 1012.0
20260502043407 66 359 2.0 6.0 0.23 2.14 0.31 98 1011.8
20260502042839 66 332 2.0 6.0 0.23 2.12 0.29 98 1011.6
20260502042338 66 3 1.0 6.0 0.23 2.10 0.27 98 1011.5
20260502041826 66 343 0.0 0.0 0.22 2.08 0.25 98 1011.6
20260502041559 66 343 0.0 0.0 0.21 2.06 0.23 98 1011.5
20260502040801 66 103 0.0 2.0 0.20 2.04 0.21 98 1011.6
20260502040254 66 89 1.0 6.0 0.18 2.02 0.19 98 1011.5
20260502035758 66 64 1.0 6.0 0.18 2.01 0.18 98 1011.9
20260502035238 66 56 0.0 3.0 0.17 1.99 0.17 98 1012.2
20260502035002 66 151 0.0 2.0 0.18 1.98 0.15 98 1012.7
20260502034229 66 151 1.0 6.0 0.20 1.96 0.13 98 1012.7
20260502033728 66 168 3.0 8.0 0.18 1.92 0.10 98 1012.4
20260502033224 66 243 3.0 8.0 0.18 1.91 0.08 98 1012.7
20260502032724 66 260 5.0 11.0 0.16 1.88 0.05 98 1012.4
20260502032204 66 245 4.0 11.0 0.15 1.86 0.03 98 1012.5
20260502031707 66 242 3.0 6.0 0.15 1.85 0.02 98 1012.0
20260502031204 66 230 3.0 6.0 0.17 1.85 0.02 98 1011.3
20260502030945 66 272 2.0 5.0 0.18 1.84 0.01 98 1011.4
20260502030422 66 341 2.0 8.0 0.18 1.83 0.01 98 1011.2
20260502025639 66 334 2.0 8.0 0.18 1.83 1.83 98 1011.1
20260502025139 66 6 1.0 4.0 0.17 1.81 1.81 97 1011.1
20260502024857 66 97 1.0 4.0 0.17 1.80 1.80 97 1011.4
20260502024127 66 119 1.0 4.0 0.13 1.75 1.75 97 1011.6
20260502023835 66 141 2.0 5.0 0.12 1.74 1.74 97 1011.4
20260502023108 66 131 2.0 6.0 0.12 1.73 1.73 97 1011.3
20260502022829 66 116 1.0 4.0 0.12 1.72 1.72 97 1011.7
20260502022045 66 97 1.0 6.0 0.13 1.71 1.71 97 1011.8
20260502021542 66 133 1.0 6.0 0.15 1.69 1.69 97 1011.7
20260502021042 66 148 1.0 4.0 0.16 1.68 1.68 97 1011.7
20260502020541 66 111 1.0 7.0 0.19 1.66 1.66 97 1012.2
20260502020033 66 64 2.0 7.0 0.30 1.65 1.65 97 1012.1
20260502015504 66 85 2.0 6.0 0.49 1.65 1.65 97 1012.3
20260502015211 66 76 4.0 11.0 0.68 1.64 1.64 96 1012.9
20260502014441 66 54 7.0 11.0 0.75 1.63 1.63 96 1012.7
20260502013915 66 112 7.0 14.0 0.81 1.62 1.62 96 1012.7
20260502013644 66 79 8.0 14.0 0.95 1.62 1.62 97 1012.8
20260502012906 66 72 10.0 17.0 1.09 1.61 1.61 97 1012.2
20260502012402 66 91 10.0 17.0 1.17 1.60 1.60 97 1012.4
20260502011856 66 107 9.0 19.0 1.20 1.56 1.57 97 1012.5
20260502011354 66 81 10.0 19.0 1.26 1.54 1.54 97 1012.7
20260502011123 66 88 11.0 18.0 1.38 1.49 1.50 97 1012.4
20260502010320 66 99 9.0 18.0 1.32 1.43 1.43 97 1012.9
20260502005811 66 112 5.0 15.0 1.14 1.25 1.28 97 1014.0
20260502005310 66 119 3.0 9.0 1.00 1.11 1.11 96 1015.0
20260502004801 66 66 3.0 10.0 0.83 0.93 0.93 96 1015.1
20260502004526 66 122 3.0 12.0 0.77 0.87 0.87 96 1014.2
20260502003755 67 164 4.0 12.0 0.69 0.79 0.80 96 1013.6
20260502003524 67 75 4.0 11.0 0.54 0.64 0.66 95 1013.6
20260502002751 67 245 5.0 16.0 0.40 0.50 0.50 95 1014.1
20260502002531 67 284 7.0 20.0 0.25 0.35 0.35 94 1013.3
20260502002252 67 237 5.0 20.0 0.30 0.40 0.42 94 1014.0
20260502001250 68 148 10.0 24.0 0.16 0.26 0.26 93 1011.9
20260502000749 68 260 8.0 24.0 0.01 0.11 0.11 92 1014.0
20260502000243 68 276 8.0 22.0 0.01 0.11 0.11 92 1011.6
20260501235742 68 107 8.0 22.0 0.01 0.11 0.11 92 1009.8
20260501235211 68 91 6.0 15.0 0.01 0.11 0.11 91 1010.7
20260501234644 68 149 6.0 15.0 0.00 0.10 0.10 91 1012.0
20260501234413 69 214 4.0 14.0 0.00 0.10 0.10 91 1012.8
20260501233616 69 243 3.0 13.0 0.00 0.10 0.10 90 1011.5
20260501233041 68 73 4.0 13.0 0.00 0.10 0.10 90 1011.2
20260501232518 68 128 3.0 14.0 0.00 0.10 0.10 91 1010.7
20260501232009 68 122 6.0 14.0 0.00 0.10 0.10 91 1010.9
20260501231738 68 103 7.0 14.0 0.00 0.10 0.10 91 1010.6
20260501230941 68 78 8.0 15.0 0.00 0.10 0.10 92 1010.9
20260501230647 68 83 7.0 15.0 0.00 0.10 0.10 92 1011.0
20260501225915 68 70 6.0 10.0 0.00 0.10 0.10 92 1011.4
20260501225415 68 118 8.0 18.0 0.00 0.10 0.10 92 1011.6
20260501224919 67 99 8.0 16.0 0.00 0.10 0.10 92 1011.5
20260501224912 68 128 10.0 18.0 0.00 0.10 0.10 92 1011.7
20260501224522 67 108 8.0 15.0 0.00 0.10 0.10 92 1011.7
20260501223359 67 114 8.0 14.0 0.00 0.10 0.10 93 1011.8
20260501222850 67 90 9.0 17.0 0.00 0.10 0.10 93 1011.9
20260501222617 67 107 8.0 17.0 0.00 0.10 0.10 93 1011.9
20260501222051 67 98 6.0 12.0 0.00 0.10 0.10 94 1012.1
20260501221316 67 109 6.0 12.0 0.00 0.10 0.10 94 1012.3
20260501220807 66 123 6.0 10.0 0.00 0.10 0.10 94 1012.5
20260501220525 66 84 7.0 15.0 0.00 0.10 0.10 95 1012.5
20260501220401 66 158 6.0 11.0 0.00 0.10 0.10 95 1012.5
20260501215252 66 99 6.0 15.0 0.00 0.10 0.10 95 1012.8
20260501214737 66 110 3.0 8.0 0.00 0.10 0.10 95 1013.1
20260501214238 66 97 2.0 6.0 0.00 0.10 0.10 95 1013.3
20260501213737 66 126 2.0 4.0 0.00 0.10 0.10 95 1013.6
20260501213514 66 30 3.0 5.0 0.01 0.10 0.10 95 1014.2
20260501213235 66 121 2.0 5.0 0.00 0.10 0.10 95 1013.9
20260501212225 66 255 3.0 5.0 0.01 0.10 0.10 95 1014.2
20260501211658 67 235 2.0 3.0 0.02 0.10 0.10 95 1013.8
20260501211651 67 243 3.0 10.0 0.03 0.10 0.10 94 1013.4
20260501210644 67 92 6.0 10.0 0.06 0.10 0.10 94 1013.0
20260501210147 67 96 5.0 10.0 0.09 0.10 0.10 94 1012.8
20260501205617 67 88 5.0 8.0 0.10 0.10 0.10 94 1013.3
20260501205053 67 111 6.0 10.0 0.10 0.10 0.10 94 1013.0
20260501204548 67 100 6.0 11.0 0.10 0.10 0.10 94 1013.2
20260501204316 67 91 7.0 12.0 0.10 0.10 0.10 93 1013.2
20260501203544 67 102 6.0 12.0 0.10 0.10 0.10 93 1013.2
20260501203026 67 121 5.0 10.0 0.09 0.09 0.09 92 1013.5
20260501202507 68 125 4.0 10.0 0.09 0.09 0.09 92 1013.6
20260501202007 68 129 3.0 8.0 0.09 0.09 0.09 91 1014.0
20260501201459 68 182 3.0 8.0 0.08 0.08 0.08 90 1014.8
20260501201001 69 139 2.0 6.0 0.06 0.06 0.07 89 1014.3
20260501200435 69 215 2.0 6.0 0.03 0.03 0.03 87 1013.7
20260501195911 70 141 3.0 6.0 0.00 0.00 0.00 86 1012.9
20260501195405 70 87 3.0 11.0 0.00 0.00 0.00 85 1013.0
20260501195138 70 108 4.0 11.0 0.00 0.00 0.00 85 1012.8
20260501194616 71 123 4.0 9.0 0.00 0.00 0.00 83 1012.7
20260501193836 71 113 4.0 10.0 0.00 0.00 0.00 83 1012.4
20260501193336 71 111 2.0 10.0 0.00 0.00 0.00 82 1012.7